• In Uzbekistan
  • List of Countries
  • For 7 days
  • Water Temperature
  • Weather Map
  • Weather Widgets
  • user-avatar
    Login

    Hourly Weather Farg`ona

    Today, 5 April, Sunday

    Time Temperature Precipitation Wind Pressure Humidity
    00:00 +20°C° 0 mm 1 mps 714 mmHg 32%
    01:00 +19°C° 0 mm 1 mps 714 mmHg 34%
    02:00 +18°C° 0 mm 2 mps 714 mmHg 36%
    03:00 +17°C° 0 mm 2 mps 714 mmHg 38%
    04:00 +17°C° 0 mm 2 mps 714 mmHg 41%
    05:00 +18°C° 0 mm 1 mps 714 mmHg 41%
    06:00 +19°C° 0 mm 1 mps 714 mmHg 40%
    07:00 +19°C° 0 mm 2 mps 715 mmHg 38%
    08:00 +20°C° 0 mm 2 mps 715 mmHg 37%
    09:00 +21°C° 0 mm 3 mps 715 mmHg 36%
    10:00 +22°C° 0 mm 3 mps 715 mmHg 34%
    11:00 +25°C° 0 mm 3 mps 715 mmHg 31%
    12:00 +25°C° 0 mm 3 mps 715 mmHg 30%
    13:00 +26°C° 0 mm 3 mps 714 mmHg 28%
    14:00 +26°C° 0 mm 2 mps 714 mmHg 27%
    15:00 +26°C° 0 mm 3 mps 714 mmHg 27%
    16:00 +26°C° 0 mm 3 mps 714 mmHg 27%
    17:00 +26°C° 0 mm 3 mps 714 mmHg 28%
    18:00 +25°C° 0 mm 4 mps 714 mmHg 33%
    19:00 +22°C° 0 mm 5 mps 715 mmHg 39%
    20:00 +21°C° 0 mm 6 mps 715 mmHg 44%
    21:00 +20°C° 0.1 mm 6 mps 715 mmHg 46%
    22:00 +20°C° 0.1 mm 6 mps 715 mmHg 49%
    23:00 +19°C° 0.1 mm 5 mps 715 mmHg 51%

    Tomorrow, 6 April, Monday

    Time Temperature Precipitation Wind Pressure Humidity
    00:00 +18°C° 0 mm 4 mps 714 mmHg 53%
    01:00 +18°C° 0 mm 2 mps 714 mmHg 54%
    02:00 +18°C° 0 mm 1 mps 714 mmHg 55%
    03:00 +18°C° 0 mm 1 mps 714 mmHg 57%
    04:00 +16°C° 0 mm 1 mps 714 mmHg 59%
    05:00 +16°C° 0 mm 1 mps 714 mmHg 61%
    06:00 +18°C° 0 mm 1 mps 714 mmHg 57%
    07:00 +19°C° 0 mm 1 mps 714 mmHg 54%
    08:00 +20°C° 0 mm 1 mps 714 mmHg 51%
    09:00 +21°C° 0 mm 1 mps 714 mmHg 47%
    10:00 +22°C° 0 mm 1 mps 714 mmHg 43%
    11:00 +23°C° 0 mm 1 mps 714 mmHg 39%
    12:00 +24°C° 0 mm 1 mps 714 mmHg 37%
    13:00 +25°C° 0 mm 1 mps 714 mmHg 34%
    14:00 +26°C° 0 mm 1 mps 713 mmHg 31%
    15:00 +26°C° 0 mm 1 mps 713 mmHg 30%
    16:00 +26°C° 0 mm 1 mps 713 mmHg 29%
    17:00 +26°C° 0 mm 1 mps 713 mmHg 28%
    18:00 +25°C° 0 mm 1 mps 713 mmHg 32%
    19:00 +24°C° 0 mm 1 mps 713 mmHg 35%
    20:00 +23°C° 0 mm 1 mps 713 mmHg 39%
    21:00 +22°C° 0 mm 1 mps 713 mmHg 40%
    22:00 +22°C° 0 mm 1 mps 713 mmHg 41%
    23:00 +21°C° 0 mm 1 mps 713 mmHg 43%

    Day after tomorrow, 7 April, Tuesday

    Time Temperature Precipitation Wind Pressure Humidity
    00:00 +21°C° 0 mm 1 mps 712 mmHg 44%
    01:00 +20°C° 0 mm 1 mps 712 mmHg 46%
    02:00 +19°C° 0 mm 1 mps 711 mmHg 47%
    03:00 +19°C° 0 mm 1 mps 712 mmHg 50%
    04:00 +18°C° 0 mm 1 mps 712 mmHg 53%
    05:00 +18°C° 0 mm 1 mps 712 mmHg 56%
    06:00 +19°C° 0 mm 1 mps 712 mmHg 52%
    07:00 +20°C° 0 mm 1 mps 713 mmHg 48%
    08:00 +21°C° 0 mm 2 mps 713 mmHg 44%
    09:00 +23°C° 0 mm 2 mps 713 mmHg 41%
    10:00 +24°C° 0 mm 3 mps 713 mmHg 38%
    11:00 +25°C° 0 mm 3 mps 713 mmHg 35%
    12:00 +26°C° 0 mm 3 mps 713 mmHg 33%
    13:00 +27°C° 0 mm 4 mps 712 mmHg 31%
    14:00 +27°C° 0 mm 4 mps 712 mmHg 29%
    15:00 +26°C° 0.2 mm 5 mps 712 mmHg 32%
    16:00 +26°C° 0.2 mm 6 mps 712 mmHg 36%
    17:00 +24°C° 0.2 mm 7 mps 711 mmHg 39%
    18:00 +22°C° 0.1 mm 7 mps 712 mmHg 44%
    19:00 +21°C° 0.1 mm 8 mps 712 mmHg 49%
    20:00 +18°C° 0.1 mm 8 mps 712 mmHg 54%
    21:00 +18°C° 0 mm 7 mps 712 mmHg 53%
    22:00 +19°C° 0 mm 6 mps 712 mmHg 52%
    23:00 +19°C° 0 mm 5 mps 712 mmHg 50%

    8 April, Wednesday

    Time Temperature Precipitation Wind Pressure Humidity
    00:00 +18°C° 0 mm 4 mps 712 mmHg 52%
    01:00 +18°C° 0 mm 4 mps 712 mmHg 53%
    02:00 +17°C° 0 mm 3 mps 711 mmHg 55%
    03:00 +17°C° 0 mm 3 mps 711 mmHg 56%
    04:00 +16°C° 0 mm 3 mps 711 mmHg 58%
    05:00 +14°C° 0 mm 3 mps 711 mmHg 59%
    06:00 +14°C° 0.1 mm 3 mps 711 mmHg 58%
    07:00 +14°C° 0.1 mm 3 mps 711 mmHg 57%
    08:00 +14°C° 0.1 mm 4 mps 711 mmHg 56%
    09:00 +14°C° 0 mm 4 mps 711 mmHg 54%
    10:00 +15°C° 0 mm 4 mps 711 mmHg 52%
    11:00 +15°C° 0 mm 4 mps 711 mmHg 50%
    12:00 +15°C° 0 mm 4 mps 711 mmHg 49%
    13:00 +17°C° 0 mm 4 mps 711 mmHg 48%
    14:00 +17°C° 0 mm 4 mps 710 mmHg 46%
    15:00 +16°C° 0 mm 5 mps 710 mmHg 47%
    16:00 +15°C° 0 mm 5 mps 710 mmHg 48%
    17:00 +14°C° 0 mm 6 mps 709 mmHg 48%
    18:00 +12°C° 0 mm 7 mps 710 mmHg 51%
    19:00 +11°C° 0 mm 7 mps 710 mmHg 54%
    20:00 +10°C° 0 mm 8 mps 711 mmHg 56%
    21:00 +10°C° 0.1 mm 8 mps 711 mmHg 54%
    22:00 +9°C° 0.1 mm 8 mps 711 mmHg 52%
    23:00 +9°C° 0.1 mm 8 mps 712 mmHg 50%

    9 April, Thursday

    Time Temperature Precipitation Wind Pressure Humidity
    00:00 +7°C° 0.1 mm 8 mps 712 mmHg 49%
    01:00 +8°C° 0.1 mm 7 mps 713 mmHg 49%
    02:00 +6°C° 0.1 mm 7 mps 714 mmHg 49%
    03:00 +7°C° 0.1 mm 6 mps 714 mmHg 50%
    04:00 +7°C° 0.1 mm 5 mps 715 mmHg 51%
    05:00 +7°C° 0.1 mm 4 mps 716 mmHg 51%
    06:00 +7°C° 0 mm 4 mps 716 mmHg 51%
    07:00 +7°C° 0 mm 5 mps 717 mmHg 52%
    08:00 +6°C° 0 mm 5 mps 718 mmHg 52%
    09:00 +7°C° 0 mm 5 mps 718 mmHg 51%
    10:00 +7°C° 0 mm 4 mps 718 mmHg 51%
    11:00 +8°C° 0 mm 4 mps 718 mmHg 51%
    12:00 +8°C° 0 mm 4 mps 718 mmHg 48%
    13:00 +10°C° 0 mm 3 mps 718 mmHg 46%
    14:00 +11°C° 0 mm 3 mps 718 mmHg 44%
    15:00 +11°C° 0 mm 3 mps 718 mmHg 44%
    16:00 +12°C° 0 mm 2 mps 718 mmHg 44%
    17:00 +12°C° 0 mm 2 mps 719 mmHg 43%
    18:00 +10°C° 0 mm 2 mps 719 mmHg 48%
    19:00 +9°C° 0 mm 2 mps 720 mmHg 52%
    20:00 +8°C° 0 mm 2 mps 721 mmHg 56%
    21:00 +9°C° 0 mm 1 mps 720 mmHg 59%
    22:00 +9°C° 0 mm 1 mps 720 mmHg 62%
    23:00 +8°C° 0 mm 1 mps 720 mmHg 64%

    10 April, Friday

    Time Temperature Precipitation Wind Pressure Humidity
    00:00 +8°C° 0 mm 1 mps 719 mmHg 66%
    01:00 +7°C° 0 mm 1 mps 718 mmHg 67%
    02:00 +7°C° 0 mm 1 mps 717 mmHg 69%
    03:00 +6°C° 0 mm 0 mps 717 mmHg 69%
    04:00 +6°C° 0 mm 0 mps 716 mmHg 68%
    05:00 +6°C° 0 mm 0 mps 716 mmHg 68%
    06:00 +7°C° 0 mm 0 mps 716 mmHg 63%
    07:00 +8°C° 0 mm 0 mps 715 mmHg 57%
    08:00 +9°C° 0 mm 0 mps 715 mmHg 51%
    09:00 +11°C° 0 mm 1 mps 714 mmHg 46%
    10:00 +13°C° 0 mm 2 mps 714 mmHg 40%
    11:00 +14°C° 0 mm 2 mps 713 mmHg 34%
    12:00 +16°C° 0 mm 2 mps 713 mmHg 32%
    13:00 +17°C° 0 mm 2 mps 713 mmHg 29%
    14:00 +18°C° 0 mm 2 mps 713 mmHg 26%
    15:00 +18°C° 0 mm 2 mps 712 mmHg 26%
    16:00 +19°C° 0 mm 2 mps 712 mmHg 25%
    17:00 +20°C° 0 mm 1 mps 712 mmHg 25%
    18:00 +19°C° 0 mm 1 mps 712 mmHg 27%
    19:00 +18°C° 0 mm 1 mps 712 mmHg 29%
    20:00 +16°C° 0 mm 1 mps 712 mmHg 31%
    21:00 +16°C° 0 mm 1 mps 712 mmHg 32%
    22:00 +15°C° 0 mm 1 mps 713 mmHg 34%
    23:00 +15°C° 0 mm 1 mps 713 mmHg 35%
    Show more